Current Weather Conditions: station 42390

sailwx.info

Wind from 170 at 5 knots

Air temperature 29.4° C
Dewpoint 24.4° C

Last reported at 2014-Jul-22 22:30 UTC.
Time now 2014-Jul-23 01:17 UTC

Location: N 26°06' W 094°54'.
View on Google Maps.

See reports from other nearby stations

  
Tides and Currents Weather Stations Pressure Air Temp Water Temp Dewpoint Dewpoint Depression Visibility Wind Speed Wind Dir Waves Ship Positions
date/time (UTC)wind fromknots sea level pressurealtimeterstation pressurevisibilityair tempwater tempwave heightnotes
2014-Jul-22 22:30 170 5 29.4
2014-Jul-22 21:30 190 3 29.4
2014-Jul-22 20:30 170 5 29.4
2014-Jul-22 19:30 150 5 28.9
2014-Jul-22 16:30 130 5 28.9
2014-Jul-22 14:30 170 7 28.9
2014-Jul-22 13:30 190 5 28.9
2014-Jul-22 11:30 170 7 28.9
2014-Jul-22 10:30 170 9 28.9
2014-Jul-22 08:30 160 13 28.9
2014-Jul-22 05:30 150 11 28.9
2014-Jul-22 04:30 150 11 28.9
2014-Jul-22 03:30 140 11 28.9
2014-Jul-22 02:30 140 11 28.9
2014-Jul-22 00:30 140 11 29.4
2014-Jul-21 21:30 160 9 29.4
2014-Jul-21 19:30 160 9 28.9
2014-Jul-21 18:30 150 11 28.9
2014-Jul-21 17:30 150 11 28.9
2014-Jul-21 16:30 150 11 28.9
2014-Jul-21 13:30 160 7 28.9
2014-Jul-21 11:30 180 9 28.9
2014-Jul-21 10:30 200 11 28.9
2014-Jul-21 07:30 190 17 28.9
2014-Jul-21 06:30 170 17 28.9
2014-Jul-21 03:30 150 13 29.4
2014-Jul-21 02:30 140 13 28.9
2014-Jul-21 01:30 140 11 28.9